Change the Weather History Date:

Thursday, October 4, 2012

  Actual Average Record
Temperature  
Mean Temperature 54 °F -  
Max Temperature 64 °F 63 °F 87 °F (2005)
Min Temperature 44 °F 41 °F 28 °F (1999)
Degree Days  
Heating Degree Days 10    
Growing Degree Days 4 (Base 50)    
Moisture  
Dew Point 40 °F    
Average Humidity 64    
Maximum Humidity 93    
Minimum Humidity 38    
Precipitation  
Precipitation 0.00 in - - ()
Sea Level Pressure  
Sea Level Pressure 30.00 in    
Wind  
Wind Speed 6 mph (West)    
Max Wind Speed 16 mph    
Max Gust Speed 26 mph    
Visibility 10 miles    
Events      
Averages and records for this station are not official NWS values.
T = Trace of Precipitation, MM = Missing Value Source: NWS Daily Summary

Daily Weather History Graph

Daily Weather History Graph

Search for Another Location

Airport or City:

Trip Planner

Search our weather history database for the weather conditions in past years. The results will help you decide how hot, cold, wet, or windy it might be!

Date:

Astronomy

Oct. 04, 2012 Rise Set
Actual Time 7:02 AM CDT 6:35 PM CDT
Civil Twilight 6:33 AM CDT 7:04 PM CDT
Nautical Twilight 6:00 AM CDT 7:36 PM CDT
Astronomical Twilight 5:27 AM CDT 8:10 PM CDT
Moon 9:03 PM CDT (10/4) 11:26 AM CDT (10/4)
Length of Visible Light 12h 30m
Length of Day
11h 33m
Waning Gibbous, 82% of the Moon is Illuminated
Oct 4
Waning Gibbous
Oct 8
Last Quarter
Oct 15
New
Oct 21
First Quarter
Oct 29
Full

Hourly Weather History & Observations

Time (CDT) Temp. Windchill Dew Point Humidity Pressure Visibility Wind Dir Wind Speed Gust Speed Precip Events Conditions
12:56 AM 48.0 °F - 43.0 °F 83% 29.97 in 10.0 mi Calm Calm - N/A   Clear
1:56 AM 48.9 °F - 44.1 °F 83% 29.96 in 10.0 mi East 3.5 mph - N/A   Clear
2:56 AM 48.0 °F - 45.0 °F 89% 29.95 in 10.0 mi East 3.5 mph - N/A   Clear
3:56 AM 46.9 °F - 43.0 °F 86% 29.95 in 10.0 mi Calm Calm - N/A   Clear
4:56 AM 46.9 °F - 44.1 °F 90% 29.94 in 10.0 mi Calm Calm - N/A   Clear
5:56 AM 46.9 °F - 44.1 °F 90% 29.94 in 8.0 mi East 3.5 mph - N/A   Clear
6:56 AM 46.9 °F - 45.0 °F 93% 29.94 in 8.0 mi Calm Calm - N/A   Scattered Clouds
7:56 AM 52.0 °F - 48.0 °F 86% 29.94 in 8.0 mi Calm Calm - N/A   Clear
8:56 AM 61.0 °F - 51.1 °F 70% 29.92 in 10.0 mi SSW 11.5 mph - N/A   Partly Cloudy
9:56 AM 60.1 °F - 48.9 °F 67% 29.94 in 10.0 mi West 9.2 mph 17.3 mph N/A   Scattered Clouds
10:56 AM 57.9 °F - 44.1 °F 60% 29.97 in 9.0 mi West 11.5 mph 18.4 mph N/A   Partly Cloudy
11:56 AM 59.0 °F - 42.1 °F 53% 29.96 in 8.0 mi West 16.1 mph 23.0 mph N/A   Partly Cloudy
12:56 PM 57.9 °F - 42.1 °F 56% 30.00 in 9.0 mi West 10.4 mph 21.9 mph N/A   Scattered Clouds
1:56 PM 60.1 °F - 39.9 °F 47% 29.99 in 10.0 mi WSW 12.7 mph 24.2 mph N/A   Overcast
2:56 PM 63.0 °F - 39.0 °F 41% 29.98 in 10.0 mi WSW 11.5 mph 20.7 mph N/A   Clear
3:56 PM 61.0 °F - 35.1 °F 38% 30.00 in 10.0 mi West 16.1 mph 26.5 mph N/A   Scattered Clouds
4:56 PM 59.0 °F - 35.1 °F 41% 30.02 in 10.0 mi West 13.8 mph 23.0 mph N/A   Mostly Cloudy
5:56 PM 57.0 °F - 33.1 °F 40% 30.04 in 10.0 mi West 16.1 mph - N/A   Clear
6:56 PM 54.0 °F - 32.0 °F 43% 30.06 in 10.0 mi WNW 11.5 mph - N/A   Clear
7:56 PM 51.1 °F - 32.0 °F 48% 30.08 in 10.0 mi WNW 13.8 mph 23.0 mph N/A   Clear
9:56 PM 48.0 °F - 30.0 °F 50% 30.11 in 10.0 mi WNW 16.1 mph - N/A   Clear
10:56 PM 46.0 °F 39.9 °F 30.0 °F 54% 30.13 in 10.0 mi West 13.8 mph - N/A   Clear
11:56 PM 44.1 °F 39.5 °F 28.9 °F 55% 30.14 in 10.0 mi WNW 8.1 mph - N/A   Clear